ジェディキ彗星

179P/Jedicke (2007)

English version
Home page
Total 6,336 html files since Dec. 4, 1995
Updated on April 4, 2008

---------------------------------------------------------------------

・ プロフィール

符号 179P/2006 U2
検出日 2006年10月22日
検出光度 20.7等
検出者 J. V. Scotti (Spacewatch II, Kitt Peak)

・ 軌道要素

                    Epoch = 2007 Dec.  6.0 TT
     T = 2007 Dec.  2.9575 TT         Peri. = 295.4577
     e = 0.307871                     Node  = 115.8517  2000.0
     q = 4.086887 AU                  Incl. =  19.8746
       a =  5.904807 AU    n = 0.0686903    P =  14.35 years

・ 星図

・ 光度変化

        m1 = 3.0 + 5 logΔ + 20.0 log r

---------------------------------------------------------------------

軌道要素は Dr. Brian G. Marsden の計算によるもので、 IAUC 8764 に掲載されたものです。
星図は StellaNavigator Ver.2.0 for Windows (アストロアーツ 編著 / アスキー出版局刊) で作成したものです。
光度グラフはComet for Windowsで作成したものです。

---------------------------------------------------------------------

Copyright(C) 1995-2008 Seiichi Yoshida (comet@aerith.net). All rights reserved.